{"data":{"norad_id":54780,"epoch":"2026-09-20T14:01:37.970400Z","epoch_age_seconds":81974,"freshness":"FRESH","line1":"1 54780U 22175Y   26263.58446725  .00001507  00000+0  55764-4 0  9994","line2":"2 54780  53.1585 219.3935 0001219  95.6016 264.5125 15.34377634209756","mean_motion":15.34377634,"eccentricity":0.0001219,"inclination_deg":53.1585,"raan_deg":219.3935,"arg_perigee_deg":95.6016,"mean_anomaly_deg":264.5125,"bstar":5.5764e-5,"rev_number":20975,"period_min":93.849126062013,"perigee_km":461.93581095116,"apogee_km":463.60362400889,"semimajor_km":6840.90671748,"source":"CELESTRAK","updated_at":"2026-09-21T09:00:33.124598Z"}}